This is the latest recevied weather packets stored in our database for station/object WW5JC. If no packets are shown the sender has not sent any weather packets the latest 10 day(s).
| Time | Temp. | Humidity | Pressure | Rain* | Wind** | Luminosity | Snow |
|---|---|---|---|---|---|---|---|
| 1778080345 | 12.78° C | 92% | 1016.5 hPa | 0 mm | - | 68 W/m² | - |
| 1778080042 | 12.78° C | 91% | 1016.3 hPa | 0 mm | - | 58 W/m² | - |
| 1778079739 | 12.78° C | 91% | 1016.1 hPa | 0 mm | - | 69 W/m² | - |
| 1778079436 | 12.78° C | 91% | 1016.1 hPa | 0 mm | - | 64 W/m² | - |
| 1778079133 | 12.78° C | 91% | 1015.8 hPa | 0 mm | - | 75 W/m² | - |
| 1778078830 | 12.78° C | 91% | 1015.7 hPa | 0 mm | - | 57 W/m² | - |
| 1778078527 | 12.78° C | 91% | 1015.6 hPa | 0 mm | - | 56 W/m² | - |
| 1778078224 | 12.78° C | 91% | 1015.4 hPa | 0 mm | - | 80 W/m² | - |
| 1778077922 | 12.78° C | 91% | 1015.5 hPa | 0 mm | - | 69 W/m² | - |
| 1778077620 | 12.78° C | 91% | 1015.7 hPa | 0 mm | - | 59 W/m² | - |
| 1778077318 | 12.22° C | 91% | 1015.3 hPa | 0 mm | - | 91 W/m² | - |
| 1778077015 | 12.22° C | 91% | 1015.2 hPa | 0 mm | - | 53 W/m² | - |
| 1778076714 | 12.22° C | 91% | 1015.2 hPa | 0 mm | - | 66 W/m² | - |
| 1778076411 | 12.22° C | 91% | 1015.1 hPa | 0 mm | - | 71 W/m² | - |
| 1778076108 | 12.22° C | 91% | 1015.2 hPa | 0 mm | - | 76 W/m² | - |
| 1778075805 | 12.22° C | 91% | 1015.1 hPa | 0 mm | - | 56 W/m² | - |
| 1778075501 | 12.22° C | 91% | 1015.1 hPa | 0 mm | - | 47 W/m² | - |
| 1778075198 | 12.22° C | 91% | 1015 hPa | 0 mm | - | 50 W/m² | - |
| 1778074893 | 12.22° C | 91% | 1015 hPa | 0 mm | - | 54 W/m² | - |
| 1778074591 | 12.22° C | 91% | 1015 hPa | 0 mm | - | 54 W/m² | - |
| 1778074288 | 12.22° C | 91% | 1015.3 hPa | 0 mm | - | 37 W/m² | - |
| 1778073985 | 12.22° C | 91% | 1015.1 hPa | 0 mm | - | 40 W/m² | - |
| 1778073682 | 12.22° C | 91% | 1015 hPa | 0 mm | - | 34 W/m² | - |
| 1778073380 | 12.22° C | 90% | 1014.9 hPa | 0 mm | - | 31 W/m² | - |
| 1778073075 | 12.22° C | 90% | 1014.9 hPa | 0 mm | - | 46 W/m² | - |
* Rain latest hour (hover to see other rain measurements)
** Current wind speed in m/s (hover to see current wind gust speed)